Theta_e
340 340 340 339 338 338 338 338 338 338 338 337 337 336 334 330 330 333 336 336 337 336 335 334 333 332 331 331 330 330 330 329 328 327 325 324 323 321 318 312 306 302 301 300 300 300 300 300 300 299 299 299 299 299 299 299 299 298 298 298 298 299 302 303 304 303 302 300 300 298 297 297 297 296 296 296 296 296 296 296 296 296 296 295 295
340 340 340 339 339 339 338 338 338 338 338 337 337 336 333 331 332 334 336 336 337 336 335 334 333 332 332 331 330 330 329 329 327 326 324 323 322 318 314 308 302 301 300 300 300 300 300 300 299 299 299 299 299 299 299 298 298 298 298 298 298 298 299 300 300 300 299 298 298 298 298 297 296 296 296 296 296 296 296 296 296 296 296 295 295
340 340 340 339 339 339 338 339 338 338 338 338 338 336 333 332 333 335 335 336 337 336 335 334 333 332 332 331 330 329 329 328 327 324 323 323 320 315 309 303 301 300 300 300 300 299 299 299 299 299 299 299 299 298 298 298 298 298 297 297 298 298 298 298 298 298 298 298 298 298 297 296 296 296 296 297 296 296 296 296 296 296 296 295 295
340 340 340 339 339 339 339 339 339 339 338 338 337 335 333 334 335 335 334 336 337 336 336 335 333 332 332 331 330 328 328 328 326 324 323 322 317 310 305 301 300 300 299 299 299 299 299 299 299 299 299 299 298 298 298 298 297 297 297 297 298 298 298 298 298 298 298 298 297 297 296 296 296 296 296 297 297 296 297 296 296 296 296 295 295
340 339 340 339 339 339 339 339 339 339 338 338 337 335 334 335 335 335 335 336 337 336 335 334 333 332 332 330 329 327 327 327 325 323 323 320 312 306 302 300 300 299 299 299 299 299 299 299 299 299 298 298 298 298 298 297 297 297 297 297 297 298 298 298 298 298 298 298 297 296 296 296 296 297 297 297 297 297 297 296 296 296 296 296 296
339 339 339 339 339 339 339 339 339 339 339 338 337 336 335 335 336 335 335 336 337 336 334 334 333 332 331 330 328 327 327 326 324 323 322 316 308 303 301 299 299 299 299 299 299 298 298 298 298 298 298 298 297 297 297 297 297 297 297 297 297 297 298 298 298 298 298 297 296 296 296 296 297 297 297 297 297 297 296 296 296 296 296 297 297
339 340 339 339 339 339 339 339 339 340 339 338 337 337 336 335 336 336 335 336 337 335 333 333 333 331 331 329 328 327 327 325 323 323 320 313 305 302 300 299 299 299 299 298 298 298 298 298 298 298 297 297 297 297 297 297 297 297 297 297 297 297 297 297 297 298 297 297 296 296 296 297 297 297 297 297 297 297 296 296 296 297 297 298 298
339 339 339 339 339 339 339 339 340 339 338 338 338 337 336 335 335 336 336 336 336 334 333 333 333 331 331 329 328 327 326 324 323 322 318 310 303 300 300 299 299 299 298 298 298 298 298 298 297 297 297 297 297 297 297 297 296 297 297 297 297 297 297 297 297 297 297 296 296 296 296 297 297 297 297 297 297 296 296 297 297 297 298 298 298
339 339 339 339 339 339 339 339 339 339 338 338 338 337 337 336 335 335 335 335 335 333 332 333 333 332 332 329 328 327 325 324 323 320 316 309 302 300 299 299 299 299 298 298 298 298 298 298 297 297 297 297 297 296 297 296 296 296 296 296 297 297 297 297 297 297 297 296 296 296 296 297 297 297 297 297 297 296 297 297 298 298 298 299 299
339 339 339 338 338 339 339 338 338 338 337 337 338 338 337 337 336 335 334 334 334 332 333 334 333 332 332 330 328 326 324 324 322 319 314 307 301 299 299 299 298 298 298 298 298 298 298 297 297 297 297 297 296 296 297 296 296 296 296 296 296 296 296 297 297 297 297 296 296 296 297 297 297 297 297 297 297 297 297 298 298 298 298 299 299
339 339 339 338 339 338 338 338 338 337 336 336 337 338 338 338 337 335 333 333 333 332 333 334 333 332 331 330 327 325 324 324 323 317 311 305 301 299 299 299 298 298 298 298 298 298 298 298 297 297 297 297 296 296 296 296 296 296 296 296 296 296 296 296 297 297 297 296 296 296 297 297 297 297 297 297 297 297 298 298 298 298 298 298 299
339 339 339 338 339 338 338 338 338 338 336 335 336 338 338 338 337 335 333 333 332 332 333 334 332 331 331 329 326 325 324 325 323 317 308 303 300 300 299 299 298 298 298 298 298 299 299 298 297 297 297 296 296 296 296 296 295 295 295 296 296 296 296 296 297 297 296 296 296 296 297 297 297 297 297 297 297 298 298 298 298 298 298 298 298
339 339 339 338 339 339 339 338 338 338 337 335 336 337 339 338 337 335 333 332 331 332 334 334 332 330 330 329 326 325 325 325 323 317 308 302 300 300 299 299 298 298 299 299 299 300 300 299 298 297 297 297 297 296 296 295 295 295 295 295 296 296 296 296 297 297 296 296 296 296 297 297 297 297 297 297 298 298 298 298 298 298 298 298 298
339 340 339 339 339 338 338 338 338 338 337 336 337 339 339 339 337 335 334 332 331 333 334 334 332 331 330 328 327 326 325 325 324 319 310 303 301 300 299 299 299 299 299 299 300 301 301 300 299 298 297 297 297 296 295 295 295 295 295 295 295 295 296 296 297 296 296 296 296 297 297 297 297 297 297 297 298 298 298 298 298 298 298 298 298
339 339 339 339 339 338 339 338 338 338 337 336 336 337 338 338 338 336 336 334 332 333 334 334 332 331 330 328 327 326 325 325 325 321 313 304 301 300 299 299 299 299 298 299 301 302 301 300 300 299 298 297 296 296 295 295 295 295 295 295 295 295 295 296 296 296 296 296 296 297 297 297 297 297 297 297 298 298 298 298 298 298 298 298 298
339 339 339 339 339 338 338 338 338 338 337 337 337 336 335 337 338 338 336 335 333 333 333 334 332 331 330 328 326 326 325 324 324 323 316 307 302 301 299 299 299 299 299 300 302 303 301 300 300 299 298 297 297 295 294 295 295 295 295 295 295 295 295 296 296 296 296 296 296 297 297 297 297 297 297 298 298 298 298 298 298 298 298 298 298
339 339 339 339 339 339 338 338 339 338 337 336 337 336 336 336 337 337 337 335 332 332 334 334 332 331 330 328 327 326 326 324 324 323 318 311 305 302 300 300 299 299 299 302 303 302 301 301 301 299 298 297 297 295 295 295 295 294 294 295 295 295 295 296 296 296 296 296 297 297 297 297 297 297 297 298 298 298 298 298 298 298 298 298 298
339 339 339 338 338 338 338 338 338 338 337 336 334 336 337 337 338 338 337 335 332 331 333 333 331 331 330 328 327 327 326 324 324 323 320 313 307 305 303 301 299 299 301 303 304 302 301 302 301 299 298 297 297 297 296 296 295 295 295 294 294 295 296 296 296 296 296 296 297 297 297 297 297 297 297 298 298 298 298 298 298 298 298 298 298
338 338 338 338 338 338 338 338 337 337 336 335 335 335 336 337 338 337 336 334 332 331 333 333 331 331 330 328 327 327 326 325 323 322 320 315 310 310 308 302 299 301 303 304 303 301 302 303 302 299 298 298 299 299 299 298 298 297 296 295 295 295 295 296 296 296 296 296 297 297 297 297 297 297 297 298 298 298 298 298 298 298 298 298 298
338 337 337 337 337 337 337 337 336 335 334 334 335 336 336 336 337 337 335 333 333 332 333 332 331 330 330 328 327 327 326 325 323 322 321 318 315 313 310 302 300 303 305 304 303 301 301 303 302 300 299 300 301 302 302 302 301 300 298 296 295 295 295 295 296 296 296 296 297 297 297 297 297 297 297 298 298 298 297 297 297 298 298 298 298
338 337 337 337 336 336 336 335 335 335 335 335 334 335 336 336 335 336 335 334 333 333 332 331 330 330 329 328 328 327 327 325 324 322 321 320 317 313 309 304 302 304 305 304 303 301 301 302 301 299 300 301 303 304 304 303 303 302 299 296 295 295 295 295 296 296 296 297 297 297 297 297 297 297 297 298 298 298 298 297 297 297 298 298 298
338 337 337 336 336 335 335 335 334 335 335 336 335 335 336 335 335 335 336 335 333 332 331 330 330 329 329 328 328 327 326 325 323 322 320 319 316 313 310 307 305 306 306 305 304 302 301 301 300 299 299 301 303 304 303 303 304 303 300 297 295 294 294 295 296 296 296 297 297 297 297 297 297 297 297 298 298 298 298 298 297 298 298 298 298
337 337 336 336 336 336 335 335 335 335 335 336 336 335 335 335 335 335 335 335 334 332 330 330 329 328 328 328 328 327 326 325 322 321 319 318 316 313 311 309 308 307 307 306 304 303 301 301 300 300 299 301 302 303 303 303 304 303 300 297 295 294 294 295 295 296 296 297 297 297 297 297 297 297 297 298 298 298 298 298 298 298 298 298 298
333 335 335 336 336 336 335 335 334 334 335 336 336 335 334 335 335 335 335 334 333 332 330 329 329 328 328 328 327 327 326 324 323 320 318 317 316 314 312 311 309 308 308 307 305 303 302 302 301 300 300 301 303 303 303 304 304 302 299 296 295 294 294 294 295 296 297 297 297 297 297 297 298 298 298 299 298 298 299 300 299 298 298 297 298
330 334 335 336 336 336 335 335 334 334 335 337 336 334 333 333 333 334 334 334 333 332 331 329 329 329 329 328 327 326 326 325 323 320 318 316 315 314 312 311 309 308 308 308 306 304 303 303 302 300 300 302 303 303 303 302 302 301 298 296 295 294 294 294 295 296 297 297 298 298 298 298 299 299 299 299 299 299 300 300 300 299 298 297 298
333 335 335 335 336 336 336 335 335 335 335 336 336 333 331 332 331 330 331 332 332 332 330 329 329 328 328 328 327 326 326 325 324 321 319 316 315 314 312 311 309 308 308 308 306 304 303 303 302 300 301 303 303 303 302 301 300 299 297 295 294 294 294 295 295 296 298 298 298 299 299 299 300 300 299 299 299 299 300 300 300 300 298 298 298
336 335 335 336 335 335 335 335 335 335 335 336 336 334 332 332 331 330 330 331 331 329 328 328 328 326 326 328 327 326 326 326 324 323 321 318 317 315 312 310 309 308 308 308 306 304 304 304 302 301 302 304 304 304 302 301 300 298 296 295 296 297 297 296 295 296 298 298 298 299 300 300 300 300 300 300 299 299 300 300 300 300 299 298 298
336 336 336 336 335 335 335 334 334 335 335 335 336 335 333 333 332 331 331 331 330 328 328 328 328 327 327 327 327 326 326 326 325 324 323 321 318 316 313 311 309 308 309 308 306 304 303 303 301 301 302 304 305 304 303 301 300 299 297 296 298 300 299 297 295 296 297 299 299 300 300 300 300 300 300 300 300 300 300 300 300 300 299 298 298
336 336 336 336 336 335 335 334 334 334 335 335 335 334 333 333 333 332 331 330 330 329 328 329 328 327 327 327 326 326 326 326 326 325 323 321 318 317 315 313 311 310 309 308 306 304 302 301 301 301 302 303 305 305 304 302 300 300 299 299 300 301 300 298 296 296 297 299 300 301 301 301 301 300 300 300 300 300 300 300 300 300 299 298 298
336 336 336 336 335 335 335 335 335 334 335 334 333 333 332 330 331 331 330 329 329 328 328 328 327 326 326 326 326 326 326 326 325 324 322 319 317 316 315 313 312 311 310 308 306 304 302 301 301 301 302 303 304 304 304 303 301 300 300 300 300 301 301 299 298 297 298 299 301 301 301 301 301 300 300 301 301 301 301 301 300 300 299 298 298
336 336 336 336 335 334 334 334 334 334 334 333 332 332 330 327 326 327 327 327 327 327 327 327 326 325 326 325 325 325 324 323 321 320 318 317 316 315 314 312 311 310 309 307 305 304 303 302 302 303 303 303 303 302 302 302 300 299 300 301 301 301 301 300 299 298 298 299 300 302 302 301 301 301 301 301 301 301 301 301 301 300 299 299 298
335 336 336 335 334 332 332 332 333 333 334 332 331 331 330 327 325 324 323 323 325 326 326 326 326 325 324 323 323 322 321 320 318 317 316 316 315 313 312 311 310 309 307 306 304 303 303 303 302 303 303 303 302 300 299 298 297 297 299 300 301 301 301 301 300 299 298 297 298 300 302 301 301 301 301 301 301 301 301 301 301 300 299 298 298
335 334 334 334 333 331 331 331 332 333 333 331 329 329 330 329 327 325 322 323 324 325 325 325 324 323 322 321 321 320 319 318 317 316 316 314 312 309 308 308 307 307 306 304 303 303 304 304 304 303 302 302 301 299 297 296 295 295 297 299 301 301 301 301 300 300 298 296 296 298 301 301 301 301 301 301 301 301 301 301 301 300 299 299 298
332 332 332 333 332 331 331 331 331 332 331 330 329 328 328 329 328 327 326 325 325 325 324 323 323 322 321 321 320 319 317 316 314 314 314 312 309 307 306 305 305 304 303 302 302 303 305 305 304 303 302 302 301 299 297 295 295 295 296 298 299 300 300 300 300 300 298 296 296 298 300 301 301 301 301 301 301 301 301 301 301 300 299 298 298
329 329 330 331 331 331 331 330 331 330 329 328 328 328 328 328 328 328 328 327 327 326 325 324 323 322 321 321 320 319 317 315 313 313 312 310 308 307 306 305 305 304 303 303 303 304 305 305 304 303 302 300 299 297 296 295 294 294 295 296 298 300 300 300 300 299 298 296 295 297 300 301 301 301 301 301 302 302 301 301 301 300 299 298 298
328 328 328 328 329 329 329 329 329 329 327 327 327 328 327 327 327 328 328 327 326 326 325 324 323 322 320 319 319 318 317 315 313 311 310 309 308 308 307 306 305 304 304 304 304 304 304 304 303 302 301 299 297 296 295 294 294 294 294 295 297 298 299 300 299 298 297 296 295 296 298 300 301 301 301 302 302 302 302 301 300 300 299 298 298
326 326 326 326 326 326 326 326 327 327 326 325 326 327 327 327 327 327 327 326 325 325 324 324 323 322 321 320 319 317 316 314 312 310 309 308 307 306 306 306 304 302 301 301 301 301 301 300 299 299 298 297 296 295 295 294 294 294 294 294 294 296 297 298 298 297 296 295 295 297 298 299 301 301 302 302 302 302 302 301 300 299 299 298 298
325 325 326 326 326 325 325 325 325 326 326 326 327 327 327 327 326 326 325 325 324 323 323 322 322 322 321 321 319 317 315 314 313 312 311 310 309 307 305 304 302 300 299 298 298 298 297 297 296 296 296 295 295 295 294 294 294 293 293 293 294 294 294 295 295 295 294 294 295 298 299 300 301 301 302 302 302 302 302 301 300 299 299 298 298
325 325 326 327 326 326 327 327 326 326 326 326 326 327 326 325 325 325 324 324 323 322 321 321 321 320 320 320 319 317 316 316 316 315 314 313 311 309 306 302 300 298 297 297 297 296 296 296 296 296 295 295 294 294 294 293 293 293 293 293 293 293 293 293 293 293 293 293 296 298 300 301 301 302 302 302 303 302 302 301 300 299 299 299 298
324 324 325 326 326 326 326 327 327 326 326 326 325 325 325 325 324 324 324 323 322 321 321 320 320 320 318 318 317 317 317 317 316 316 315 314 313 311 307 303 299 298 297 296 296 296 297 298 298 298 297 295 294 294 294 293 293 293 293 293 293 293 293 293 293 293 293 294 296 298 300 301 301 302 302 302 302 302 301 300 300 299 299 298 298
324 324 325 325 326 326 326 326 326 326 326 326 325 325 324 324 323 323 323 322 321 320 319 319 319 318 317 317 316 317 317 317 317 316 315 313 312 311 308 303 299 297 297 296 296 297 298 299 299 299 298 296 295 294 294 294 294 294 293 293 293 293 293 293 293 293 294 294 295 298 300 301 301 302 302 303 302 302 301 300 300 300 299 298 298
326 326 325 326 326 326 326 326 326 325 325 324 324 323 323 322 322 321 321 320 319 319 318 318 318 317 317 316 316 316 316 316 316 315 314 313 311 310 307 303 300 298 297 297 297 298 299 300 300 300 299 298 297 296 295 294 294 294 294 294 294 293 293 294 294 294 294 294 294 296 299 301 301 302 302 302 302 301 301 300 300 300 299 299 299
325 326 325 325 325 325 325 324 324 323 323 322 322 321 320 319 319 319 318 318 318 318 317 317 317 317 317 316 316 316 316 315 315 315 314 312 310 309 308 306 304 302 299 298 297 298 298 299 300 300 300 299 299 298 297 296 295 294 294 294 294 294 293 294 294 294 295 294 294 296 299 301 302 302 302 302 302 301 301 301 301 300 300 300 299
325 325 325 325 324 324 323 323 322 321 321 320 320 319 319 318 318 317 317 316 316 317 317 317 317 317 316 316 315 315 315 315 314 314 313 312 311 310 309 308 307 306 303 301 299 298 298 299 300 301 300 300 299 299 299 298 297 296 295 294 294 293 294 295 296 297 297 297 296 297 299 301 302 302 302 302 301 301 301 301 301 301 300 300 300
324 323 324 323 323 322 322 321 320 320 320 320 319 319 319 318 318 317 317 316 316 316 316 316 316 316 316 315 315 315 315 315 314 313 312 312 311 311 310 309 309 308 306 304 302 300 299 300 300 300 300 300 300 300 299 299 299 297 296 295 294 294 295 297 298 299 299 299 299 299 300 301 302 302 302 301 301 301 301 301 301 301 301 300 300
322 322 322 321 321 321 321 320 320 319 319 319 318 318 317 317 318 317 317 316 316 316 316 315 315 315 315 314 314 314 314 313 313 312 312 311 311 310 308 308 307 307 306 305 304 303 302 302 301 301 301 300 300 300 300 300 299 299 298 296 295 295 297 299 300 300 300 300 300 301 301 301 301 301 302 301 301 301 301 301 301 301 300 300 300
321 321 321 320 321 321 320 320 319 319 319 318 318 317 316 316 316 316 316 316 316 316 315 315 315 315 315 315 314 313 313 313 312 312 311 310 308 307 306 306 305 305 305 304 304 304 303 303 302 302 301 301 301 300 300 300 300 300 299 298 296 296 297 299 300 300 300 300 300 301 301 301 301 301 301 301 301 301 301 300 300 300 300 300 300
318 317 317 317 318 319 320 320 319 319 318 318 318 317 316 316 315 316 316 315 315 315 315 315 315 315 315 315 314 313 313 312 312 310 309 308 307 307 306 306 305 305 304 303 303 303 302 302 302 301 301 301 301 301 301 300 300 300 300 299 297 296 297 298 299 300 300 300 300 300 301 301 301 301 301 301 301 301 301 301 301 301 300 300 300
316 315 314 314 315 315 317 318 318 318 318 318 317 317 315 315 315 315 315 314 314 314 315 315 315 315 314 314 313 313 313 312 311 309 308 308 307 307 307 306 306 305 304 303 303 302 302 302 302 302 301 301 301 301 300 300 300 300 300 300 298 297 296 297 298 299 300 300 300 300 300 301 301 300 301 300 301 301 301 301 301 301 300 300 299
316 316 314 313 314 314 314 315 317 318 317 317 316 316 315 314 314 315 315 314 314 313 313 313 313 313 313 313 312 312 312 311 310 309 308 308 308 307 307 307 306 305 304 303 303 303 302 302 302 301 301 300 299 299 298 297 297 297 298 299 299 298 297 296 297 298 299 300 300 300 300 300 300 300 300 300 300 300 301 301 300 300 300 300 300
317 316 314 313 313 314 314 314 316 317 317 316 316 316 315 314 314 314 314 314 314 314 314 314 313 313 313 312 312 312 311 310 309 309 309 308 308 307 307 306 305 304 304 303 303 302 301 301 300 299 298 298 297 297 296 295 294 294 294 296 298 298 298 297 296 297 298 299 300 300 300 300 300 300 300 300 300 301 301 301 300 300 300 300 300
Wind_Speed
53 52 50 49 48 48 46 45 43 42 40 38 36 33 31 31 29 25 22 22 23 22 20 18 18 18 19 19 20 20 20 19 18 18 17 16 16 15 14 13 13 12 11 10 10 10 9 9 8 8 7 7 6 6 5 5 5 5 6 6 7 8 11 11 12 12 12 11 10 10 11 12 13 14 15 14 13 13 14 15 16 17 18 19 19
54 52 50 50 50 48 47 45 43 42 40 39 36 33 32 31 28 25 23 24 24 22 19 18 18 18 19 20 20 20 20 19 18 17 17 16 16 14 14 13 13 12 11 10 10 10 9 8 8 7 7 6 6 5 5 5 5 5 6 7 7 8 9 10 10 10 10 9 9 9 10 11 12 12 12 12 12 13 13 14 15 16 17 18 18
54 52 50 51 50 49 48 46 44 42 40 39 37 34 33 31 29 26 25 24 23 22 20 19 18 19 20 20 21 21 20 18 17 17 17 16 15 14 13 13 12 11 10 10 10 9 9 8 8 7 7 6 5 5 5 5 5 6 7 8 8 8 9 9 9 8 8 7 7 7 9 10 10 10 10 11 12 12 13 14 15 16 16 16 17
53 51 50 51 51 50 49 47 44 43 41 39 36 34 33 31 29 26 24 24 23 22 21 20 20 20 20 21 21 21 19 18 17 17 17 16 14 13 13 12 12 11 11 10 10 9 8 8 7 7 6 5 5 5 5 6 6 7 9 9 9 8 8 8 7 6 6 5 6 6 7 8 9 8 8 9 10 11 13 14 15 15 14 15 17
52 51 51 51 52 51 50 48 45 44 42 39 35 33 33 31 29 27 25 25 24 22 21 21 21 22 21 22 22 20 18 18 18 17 16 15 14 14 13 12 12 12 11 11 10 9 8 7 7 7 6 5 5 5 5 6 7 9 10 10 9 8 7 6 5 4 4 4 5 5 6 7 7 6 7 9 10 11 13 14 15 16 15 15 16
51 51 51 52 52 52 51 49 47 44 42 38 33 32 32 31 29 28 27 27 25 23 23 22 22 23 22 22 21 19 18 18 18 17 16 15 15 15 14 13 13 12 12 11 11 9 8 8 8 7 6 6 6 6 6 7 9 10 10 10 8 7 6 5 4 4 3 4 4 5 5 5 5 6 8 10 11 13 13 14 16 18 18 18 18
51 51 51 52 52 52 51 50 48 45 42 37 32 31 31 31 31 30 28 27 26 24 24 24 23 23 23 22 20 18 18 18 17 16 15 14 16 16 15 15 14 13 13 12 11 10 9 9 8 8 8 7 7 7 7 9 11 11 10 9 8 7 6 4 4 3 4 4 4 4 4 4 4 5 7 9 11 13 15 16 17 19 20 21 21
50 50 51 51 52 52 51 49 48 46 41 36 33 32 32 30 30 30 29 28 26 25 25 25 24 24 23 22 19 18 19 18 17 15 14 15 16 16 15 15 15 14 14 13 12 11 11 10 9 9 9 9 9 8 8 10 12 12 11 10 8 7 6 4 4 4 4 4 4 4 4 4 3 5 7 8 10 12 14 17 19 20 21 21 22
50 50 50 51 51 51 50 48 47 45 40 36 34 35 34 30 27 28 29 28 26 25 26 26 26 24 24 22 20 19 19 18 16 14 14 15 17 16 16 15 15 15 14 13 13 12 12 11 10 10 10 10 10 10 10 11 12 11 10 9 8 7 6 4 4 4 4 4 4 4 4 4 4 4 6 9 11 12 13 15 17 19 20 21 21
49 49 50 51 50 49 48 47 46 44 40 36 35 37 37 33 28 26 27 27 27 27 28 29 26 24 24 23 21 20 19 16 14 14 14 15 16 16 16 16 15 15 14 13 13 13 13 12 12 12 11 11 11 11 11 12 13 12 11 10 9 8 6 5 4 4 4 4 4 5 5 4 4 4 6 9 10 10 12 14 15 17 20 21 21
49 49 50 50 48 47 47 46 45 43 39 36 36 38 39 36 31 26 25 27 28 29 31 30 26 24 24 22 21 19 17 14 13 13 14 16 17 16 16 16 16 16 14 14 14 13 13 13 13 13 13 13 13 12 12 13 13 13 12 11 10 8 6 5 5 4 4 4 4 5 5 4 3 4 6 8 8 9 11 13 15 17 19 22 23
48 49 49 48 47 47 47 46 45 43 40 36 35 39 41 38 33 27 25 28 30 30 31 28 24 24 24 22 21 19 16 13 12 13 15 17 17 17 16 16 16 16 15 15 15 13 13 13 14 14 15 14 14 13 13 13 13 13 13 12 10 9 7 6 5 4 4 4 5 5 4 3 2 3 5 6 7 8 10 11 14 16 18 20 21
47 48 47 47 47 47 46 46 44 43 40 36 36 40 42 39 35 29 24 27 32 34 33 28 24 25 25 23 21 18 15 13 13 13 15 17 18 17 17 16 16 16 15 15 14 12 13 14 14 14 15 15 15 14 14 14 14 14 14 12 11 9 8 7 6 4 4 5 5 5 4 3 2 3 4 5 6 7 9 10 12 14 16 18 20
45 46 46 46 46 46 46 45 44 43 40 36 37 41 40 38 36 31 25 26 31 36 35 29 25 26 25 24 21 17 15 15 13 13 14 17 18 18 17 17 17 16 15 15 13 12 14 15 13 13 15 16 15 15 15 16 15 14 14 13 11 10 9 8 6 5 5 5 6 6 5 4 3 3 4 4 5 6 8 10 12 13 15 16 18
44 45 45 46 46 46 46 45 44 43 39 37 38 39 38 39 38 34 30 28 29 33 35 32 28 27 26 25 23 18 16 15 14 13 14 16 18 18 18 19 19 17 17 16 13 12 14 14 12 13 14 14 15 15 16 16 15 14 14 13 12 11 10 9 7 5 5 6 6 6 6 4 3 3 3 3 4 6 7 10 12 13 14 15 17
44 44 44 45 45 45 45 44 44 42 40 39 39 37 36 38 38 36 35 31 28 31 36 37 32 28 27 27 24 18 16 16 15 14 14 16 18 18 19 20 20 19 19 16 14 14 14 13 12 13 14 14 14 16 17 17 16 15 14 14 13 12 10 9 8 6 6 7 7 7 6 5 4 4 3 2 3 5 6 9 11 13 15 16 18
44 44 44 45 45 45 44 44 43 42 40 39 41 40 38 37 38 39 38 32 28 31 37 40 35 29 28 30 25 19 18 18 16 16 15 16 18 19 20 21 20 20 18 15 14 16 15 13 12 14 14 15 16 16 17 16 16 16 15 14 13 12 11 10 8 7 7 7 8 8 6 5 4 4 4 3 4 5 7 9 11 13 16 18 20
44 45 44 44 44 44 43 42 42 42 40 38 39 40 39 39 42 41 36 30 28 30 35 40 38 31 28 29 24 19 19 18 18 18 17 17 18 18 19 21 21 20 18 16 16 17 16 14 14 15 16 17 17 16 16 16 15 14 14 14 14 13 12 11 9 8 8 8 9 8 7 5 5 5 4 5 4 6 7 9 11 13 15 18 20
44 44 44 44 43 42 42 41 40 40 38 38 40 41 41 43 42 37 30 30 31 31 35 40 39 32 28 28 25 21 20 20 20 20 18 19 19 19 19 21 23 21 17 16 17 18 17 16 16 17 17 17 17 15 14 14 12 12 12 14 14 14 12 11 10 9 8 9 9 9 7 6 5 5 5 6 6 7 8 10 12 13 15 17 19
42 42 42 42 41 41 41 40 39 38 36 36 39 42 43 41 37 34 32 33 33 34 38 42 40 34 30 29 28 25 22 21 22 20 18 19 19 19 20 23 23 20 15 15 17 18 18 18 18 18 18 17 16 15 14 12 10 11 12 13 14 14 12 11 10 9 9 10 10 9 9 7 6 4 4 5 6 7 9 11 12 13 14 16 18
38 38 40 40 40 40 40 38 37 36 35 34 33 37 39 37 34 35 36 35 35 37 40 42 41 35 31 29 30 28 26 23 23 21 19 18 19 18 19 22 22 17 14 14 15 17 19 19 18 19 19 18 16 15 14 12 10 11 12 12 13 13 13 12 11 10 10 10 10 11 11 10 8 6 4 4 5 7 9 11 13 13 14 16 18
35 35 37 38 38 38 38 37 36 35 34 34 33 35 39 40 36 34 36 38 39 38 37 40 40 36 32 32 32 32 30 26 24 22 20 19 19 19 18 19 19 16 14 14 15 16 18 18 17 17 19 19 17 16 14 12 12 11 11 13 14 14 13 12 12 11 11 10 11 12 12 12 10 8 7 6 5 6 7 9 12 13 14 15 17
28 30 35 38 37 37 37 37 36 34 34 37 36 35 38 41 38 35 36 40 42 39 38 40 40 37 34 35 36 35 32 28 25 22 20 19 19 19 17 16 17 16 15 14 13 13 15 17 16 16 18 18 17 15 14 13 13 12 12 15 16 15 14 13 13 13 12 12 12 12 13 12 11 8 7 7 7 6 6 8 11 13 14 15 17
21 25 35 41 39 38 37 36 34 34 36 39 39 35 37 42 42 39 38 40 41 41 41 41 39 35 34 36 37 35 32 29 26 23 21 20 19 19 17 16 17 17 16 15 13 13 14 16 16 17 19 19 16 14 13 13 13 12 13 16 18 17 15 14 14 14 14 13 12 12 12 12 9 7 7 8 8 7 7 9 11 13 14 15 17
21 27 37 43 40 38 37 35 34 35 37 39 38 35 38 44 45 44 43 42 40 41 42 42 39 35 35 34 33 32 31 29 27 24 22 21 20 19 17 17 18 19 18 16 14 13 14 16 16 17 19 18 16 14 13 13 14 14 15 17 18 17 16 15 15 15 15 14 13 12 11 10 9 8 9 10 10 8 8 11 12 13 14 15 17
28 32 40 42 39 37 38 37 36 37 39 40 37 35 36 40 43 44 43 40 39 39 41 41 39 37 34 32 31 31 31 29 26 24 23 22 21 20 19 19 20 20 19 18 15 14 16 17 18 19 19 17 16 14 13 13 15 17 17 18 18 17 16 15 15 15 15 14 14 13 11 9 10 10 11 12 11 9 10 13 14 14 15 16 18
33 39 44 43 40 39 40 39 38 39 40 41 42 39 37 37 40 41 39 38 39 39 38 38 38 36 33 30 29 30 29 28 27 25 24 24 23 23 23 22 22 23 22 20 18 17 18 19 19 19 19 18 17 16 14 14 17 19 19 19 18 16 15 15 15 16 16 15 14 13 11 10 11 11 12 12 11 10 11 14 16 16 16 16 18
36 42 44 42 41 40 40 39 40 41 41 43 45 44 42 40 40 39 39 39 38 35 34 34 33 31 29 30 30 29 29 29 27 25 25 26 25 25 25 25 26 26 24 22 20 20 20 20 21 21 21 21 20 19 17 17 18 20 20 20 18 16 15 15 15 16 16 16 15 13 12 12 12 12 12 13 11 10 12 15 17 17 16 16 17
37 40 40 40 41 41 40 40 42 42 41 43 45 42 39 36 35 36 38 37 32 27 25 27 26 25 26 28 28 29 30 29 25 23 25 26 24 23 22 22 24 25 24 22 22 22 22 22 22 23 23 24 23 22 20 19 19 20 21 21 20 18 17 16 15 15 15 16 16 14 13 13 13 12 12 12 10 11 14 16 18 17 16 15 16
35 37 38 39 40 40 41 42 43 41 40 43 46 42 37 33 32 32 32 31 28 24 21 20 20 19 21 23 24 25 26 23 20 21 24 23 22 21 19 19 20 21 22 23 24 24 24 23 23 23 24 25 25 24 23 22 21 21 21 22 21 20 19 17 15 14 15 16 17 16 15 15 14 13 13 13 13 13 15 17 18 18 16 15 16
35 37 38 38 40 42 43 44 42 37 36 40 43 41 38 35 32 29 28 26 25 24 22 18 15 13 14 16 18 20 20 18 16 17 18 19 19 19 20 21 21 21 22 24 25 26 26 24 23 22 23 24 25 25 25 24 23 22 22 22 22 22 20 18 16 15 16 17 18 17 17 16 15 14 14 15 15 14 15 17 18 17 16 15 16
35 37 38 40 41 42 41 40 36 33 35 39 41 39 37 34 32 30 27 25 23 22 20 18 15 14 14 13 13 14 15 15 15 15 16 17 17 17 18 21 22 22 23 24 25 27 26 24 22 22 21 22 23 23 23 23 23 22 22 22 22 21 20 18 16 15 16 18 19 19 18 16 16 16 15 15 15 15 15 16 16 16 15 15 15
34 37 39 40 40 38 36 35 33 33 35 37 38 37 33 31 31 30 28 26 24 22 21 19 18 17 16 14 13 14 14 14 15 16 17 18 17 17 18 18 20 22 24 26 27 28 27 25 23 22 22 22 22 21 22 22 22 21 21 20 20 19 18 18 17 16 16 17 18 19 19 17 17 16 16 15 15 15 15 15 15 15 14 14 14
31 34 36 36 36 35 34 33 32 33 34 33 31 31 30 28 27 27 27 27 27 25 24 22 20 19 18 17 17 17 16 14 15 18 19 20 20 19 19 19 20 22 25 27 28 28 27 26 24 24 24 23 22 21 22 22 21 21 21 20 18 18 18 18 18 17 16 17 18 20 19 18 18 17 17 15 15 15 15 15 14 13 13 14 14
26 26 28 29 31 33 34 33 31 32 33 31 28 27 28 28 26 25 24 24 25 25 25 24 24 24 23 21 20 20 19 18 18 19 21 22 22 22 22 23 24 26 28 28 28 27 26 26 25 24 24 23 22 22 22 21 21 21 21 20 19 18 19 18 18 16 16 17 19 20 20 20 19 19 18 16 16 16 16 15 14 13 13 13 14
22 22 23 26 29 31 32 31 29 30 32 31 28 26 27 27 25 24 23 21 20 21 22 24 25 26 25 23 21 21 21 21 21 21 22 23 24 24 25 25 26 27 28 28 27 26 26 26 25 24 24 23 22 22 22 21 21 21 20 21 21 20 20 19 18 17 16 17 18 20 21 22 21 20 19 18 17 17 17 15 13 13 13 13 13
18 19 19 22 27 29 28 28 28 28 30 29 26 24 24 23 22 21 21 19 18 17 18 20 22 23 24 24 23 23 23 23 23 23 23 23 24 24 24 23 24 25 25 25 24 24 24 23 23 23 23 22 22 22 22 22 21 20 20 21 22 22 22 21 19 18 17 17 18 19 21 21 21 20 20 19 18 17 16 15 13 13 13 13 14
13 15 16 18 22 23 22 23 24 23 23 23 20 19 20 20 19 19 18 17 16 15 14 15 17 18 21 23 24 25 25 25 25 25 25 25 24 23 23 22 22 22 22 21 21 20 20 19 18 18 19 19 20 20 20 20 19 19 19 20 21 22 22 21 21 19 18 19 20 20 21 21 20 20 20 19 18 17 16 14 13 13 13 13 14
12 16 18 18 17 16 15 16 16 16 17 17 17 17 18 18 18 17 16 15 14 13 13 13 14 15 17 20 23 26 26 25 23 23 23 24 23 22 22 22 22 22 21 20 19 18 16 14 13 14 15 16 16 17 17 17 17 17 17 18 19 21 21 21 20 20 20 21 21 22 21 20 19 19 19 18 17 16 15 13 12 12 13 13 13
11 17 19 17 14 14 13 11 11 11 11 12 12 13 14 15 14 13 12 12 12 12 13 13 14 14 15 18 21 24 24 22 20 19 19 19 20 20 20 21 21 21 20 19 18 17 14 12 11 10 11 12 14 15 15 16 16 16 17 17 18 19 19 19 19 20 20 21 22 23 22 20 19 18 18 17 17 16 14 12 11 11 12 12 11
6 12 14 12 12 12 13 12 12 11 10 10 9 9 9 10 10 10 10 10 10 10 11 13 13 13 13 14 16 18 19 17 16 15 15 16 17 18 18 19 19 19 18 17 16 15 13 11 10 9 9 10 12 14 15 16 16 16 17 17 17 17 17 18 18 19 20 21 22 23 23 20 19 18 18 16 16 15 13 11 11 11 11 10 9
7 9 11 12 12 12 11 10 10 9 9 8 8 7 7 8 9 10 11 11 11 10 11 12 12 13 13 13 13 14 15 15 14 14 14 15 16 16 15 16 17 17 16 15 15 14 13 12 10 8 8 8 9 11 13 14 15 16 16 16 16 16 16 17 17 18 19 20 22 23 22 20 18 17 17 15 15 14 13 12 11 11 12 11 10
5 7 9 11 12 11 10 9 7 7 7 7 7 8 8 8 9 10 11 12 12 11 11 11 12 13 13 13 13 13 14 15 16 16 16 16 15 13 12 13 13 14 14 14 14 14 14 14 12 10 9 8 8 9 11 12 13 15 15 15 16 16 17 17 16 16 17 19 20 21 21 20 18 17 16 15 14 14 13 12 12 12 13 14 14
5 5 8 10 12 13 13 11 9 8 8 8 7 7 7 7 8 9 10 11 11 11 10 10 11 12 12 12 13 14 15 16 18 18 17 16 14 12 12 12 13 13 14 14 14 14 15 15 14 13 12 10 10 10 10 12 13 14 15 16 17 17 17 17 15 14 15 16 17 19 19 19 18 17 15 14 14 15 15 14 13 14 15 15 16
6 7 10 12 13 12 12 11 10 9 8 8 8 7 7 7 7 7 8 9 10 10 10 10 10 10 11 12 13 14 15 16 17 17 16 15 13 13 13 14 15 15 15 15 15 15 16 15 15 15 14 13 13 13 13 13 14 14 15 16 17 18 17 16 14 14 14 14 15 17 18 18 17 15 14 13 15 16 16 15 15 16 16 17 17
9 10 11 12 11 10 10 9 9 8 9 9 9 8 7 6 6 6 6 7 8 9 10 9 9 10 10 11 12 14 14 15 15 15 15 14 13 13 14 14 15 15 15 16 16 17 17 17 17 17 16 16 16 16 16 16 15 16 16 17 17 18 18 17 16 15 15 14 14 16 17 16 15 14 13 13 14 15 15 15 15 16 17 17 17
10 10 10 9 8 9 9 8 8 9 10 10 9 8 7 7 7 6 6 7 8 9 9 9 10 10 9 9 10 12 13 14 14 13 13 12 12 12 12 11 11 12 12 13 14 15 16 16 17 17 17 17 18 18 19 19 19 19 19 19 19 19 19 19 19 18 16 15 15 16 16 15 14 14 14 13 13 13 14 15 16 16 17 16 16
11 10 9 8 7 7 8 9 10 10 10 10 10 9 8 8 7 6 6 7 9 10 10 11 11 11 11 11 11 12 13 14 14 13 13 13 13 12 11 10 10 11 11 12 13 13 14 14 15 15 16 17 18 19 21 22 23 23 23 23 23 22 22 22 22 21 19 17 17 17 16 16 15 15 15 14 13 14 14 15 16 16 16 16 15
13 11 10 9 7 6 7 8 10 10 9 9 9 10 10 9 8 7 7 8 9 11 12 12 13 14 13 13 13 14 14 14 13 14 14 13 12 11 10 10 11 12 12 13 13 13 14 15 15 16 17 18 19 20 21 22 23 25 26 27 27 26 25 26 26 24 22 20 18 18 18 18 17 17 16 15 14 15 15 17 17 17 17 16 16
10 10 9 8 7 6 5 5 7 9 10 10 10 10 9 9 8 7 6 7 8 9 11 12 12 13 13 13 13 13 13 13 13 13 13 12 11 11 11 11 11 12 13 13 13 14 14 15 15 16 17 17 17 18 18 18 19 21 23 26 27 28 28 28 29 27 25 22 20 19 20 19 19 18 18 17 16 16 17 18 18 17 17 16 16
6 7 8 8 7 7 5 5 7 9 11 11 11 9 8 8 8 7 7 7 8 9 10 11 11 11 11 12 12 13 13 13 14 13 12 11 11 10 10 11 11 11 11 12 12 12 11 11 11 11 12 12 12 13 13 13 13 14 17 20 24 26 28 29 29 29 27 25 22 21 21 21 21 20 20 19 18 18 17 17 17 16 15 15 15
Wind_Direction
222 221 222 222 223 226 228 228 229 230 231 232 232 229 226 224 226 228 231 234 236 239 239 239 245 253 256 256 256 256 259 266 272 274 273 271 271 266 254 239 231 228 224 219 215 213 215 217 218 223 227 231 231 229 228 224 221 219 213 207 203 208 215 222 229 232 233 239 251 263 276 287 295 302 307 315 326 334 337 339 337 334 332 332 336
223 222 222 222 223 225 227 228 228 229 231 232 230 227 224 221 221 224 229 233 236 239 241 241 246 252 253 253 253 254 258 266 271 272 270 270 268 259 243 231 225 221 217 215 212 212 217 219 220 224 226 229 229 223 218 216 214 212 209 201 192 195 205 213 221 226 228 237 251 267 283 294 301 306 312 322 334 341 345 345 343 341 338 339 344
223 221 220 222 222 223 226 227 228 229 231 231 229 225 222 219 218 222 227 231 234 237 239 242 246 250 251 251 250 251 257 265 269 269 269 269 264 248 233 225 219 216 213 213 213 214 219 221 223 225 226 228 229 224 216 205 202 206 205 200 195 198 203 206 213 221 229 243 260 277 293 300 302 306 316 330 341 347 348 348 348 349 347 346 353
221 219 220 222 221 222 225 226 227 228 230 231 228 224 220 217 216 220 226 230 234 237 238 239 243 246 248 248 248 249 255 262 266 267 268 266 254 236 225 219 213 210 209 211 214 216 218 223 226 227 226 229 229 225 216 204 201 203 202 201 202 204 205 207 215 225 237 255 272 284 294 296 298 308 324 337 346 348 350 352 355 359 360 358 359
219 219 220 220 219 221 223 225 226 228 229 230 227 223 220 216 216 219 225 229 233 236 236 236 239 243 245 247 247 249 254 261 263 264 266 259 241 226 218 211 208 208 207 208 211 213 216 220 226 228 228 231 233 229 221 213 210 207 202 202 206 206 207 216 227 240 257 278 291 294 293 295 303 318 332 340 347 351 357 4 8 11 13 13 11
217 217 218 219 219 220 222 225 226 227 228 227 225 222 219 216 217 219 224 229 233 233 232 233 239 243 246 247 246 246 251 257 259 260 259 247 228 219 213 206 204 205 207 208 208 208 212 218 223 227 229 233 237 236 228 218 213 209 205 207 209 209 214 229 246 266 293 306 305 297 287 292 306 325 339 345 350 354 1 11 17 18 17 19 21
214 216 217 218 218 219 221 224 225 226 226 224 222 219 217 218 220 221 224 228 230 230 229 231 237 243 246 247 244 244 249 253 255 257 251 235 221 216 212 206 202 203 206 209 208 206 210 217 223 227 229 234 236 232 223 215 212 210 210 212 213 215 224 241 263 289 312 313 303 288 277 282 307 334 349 354 356 359 5 12 18 20 19 17 18
212 214 215 216 217 219 221 223 224 225 224 222 219 217 217 220 222 222 224 227 228 228 228 231 237 242 245 244 241 242 246 250 252 253 245 227 217 215 212 207 204 203 205 208 207 208 212 217 223 227 229 232 230 224 217 213 213 213 214 215 216 222 232 246 268 292 307 305 294 278 272 284 315 342 353 359 5 11 14 16 15 16 17 16 13
211 213 214 215 216 218 220 221 222 223 222 220 217 216 217 220 221 221 222 225 225 226 228 231 235 241 242 239 236 237 242 247 251 252 241 224 216 214 211 207 206 205 206 207 206 209 213 218 223 226 227 226 223 221 218 214 212 214 217 219 221 226 236 247 264 284 295 291 277 265 265 283 316 343 356 6 15 20 20 19 16 12 12 14 12
210 211 213 214 215 216 217 219 220 220 220 219 217 217 217 218 219 219 221 223 221 221 226 229 231 238 240 234 231 234 239 245 251 249 235 222 217 215 211 207 206 207 206 207 208 210 214 219 222 224 224 221 220 222 222 214 209 210 212 216 223 230 239 248 255 271 282 273 261 256 257 272 311 345 4 14 21 25 22 18 15 10 8 9 10
209 211 213 213 213 215 216 218 219 220 220 218 218 219 219 218 218 216 218 221 219 222 226 225 228 236 237 231 228 232 237 245 251 245 228 216 215 215 212 208 207 207 205 206 209 212 218 221 222 222 220 218 219 221 218 213 210 212 212 213 221 229 237 245 251 263 271 260 251 247 249 267 313 352 8 18 24 25 23 18 13 9 7 6 6
210 211 211 211 212 214 215 217 218 220 220 218 218 220 219 219 216 213 217 220 217 222 225 221 227 236 233 227 225 227 234 242 247 241 224 213 213 213 210 208 207 206 205 205 207 211 220 225 225 222 219 217 218 218 213 211 212 214 215 216 222 228 233 239 246 259 267 257 249 245 246 270 318 351 2 16 27 25 23 19 13 9 7 5 4
209 210 210 210 212 213 215 217 218 220 220 219 220 221 220 219 216 212 219 222 220 223 221 217 227 235 229 223 221 222 230 237 243 239 222 213 213 210 206 206 206 208 208 208 207 212 222 226 224 222 220 218 217 213 210 212 214 215 217 219 222 227 232 234 237 249 259 255 253 249 250 269 309 339 353 9 21 21 19 17 12 8 5 3 1
209 209 210 211 212 213 214 217 218 220 221 221 221 221 220 221 218 215 221 227 227 226 219 214 226 234 226 218 215 218 228 232 239 239 223 215 213 208 204 204 205 207 209 208 212 222 229 226 221 221 223 221 217 211 208 212 216 218 220 221 223 227 231 232 234 238 245 248 250 250 253 268 300 327 342 1 12 12 11 10 6 4 3 360 357
209 209 210 211 212 213 215 217 218 219 220 222 222 221 222 224 221 218 220 225 231 230 220 214 224 232 223 213 209 214 222 226 233 235 225 217 213 207 203 204 205 206 205 207 218 231 230 221 216 219 222 220 217 212 210 214 219 220 222 222 225 229 231 232 235 236 237 242 244 244 251 266 292 319 327 343 1 360 358 1 359 357 357 355 354
208 209 210 211 212 214 216 216 217 218 220 222 221 221 224 225 223 223 222 223 230 234 225 217 220 227 221 210 206 210 216 220 225 228 223 216 213 208 205 206 207 206 205 209 222 229 223 214 214 219 219 216 214 212 212 217 221 221 222 223 225 229 233 234 237 239 235 236 238 240 248 263 282 304 302 305 342 344 341 348 351 350 351 350 351
207 208 209 211 213 215 216 217 218 219 220 221 221 222 223 223 224 225 222 221 228 235 229 218 215 222 219 207 202 206 211 214 218 221 220 215 211 208 206 206 206 204 206 214 224 225 218 213 216 220 219 214 211 211 214 219 221 220 220 223 226 230 234 237 239 240 237 236 236 239 246 256 271 289 282 276 311 325 325 334 342 345 348 349 350
207 208 210 212 214 216 217 218 219 219 220 224 225 224 224 225 226 224 221 224 231 235 232 222 215 220 219 208 201 203 207 210 214 216 216 211 208 208 210 208 203 201 208 218 222 221 217 214 219 222 220 215 211 211 216 218 218 217 218 223 227 229 233 238 240 240 238 237 235 237 244 251 261 273 264 261 289 311 317 325 334 339 344 347 347
210 210 212 213 215 217 218 219 221 222 225 228 227 225 224 224 223 221 225 233 234 234 235 227 219 220 220 209 205 206 206 210 214 215 214 210 206 211 213 208 201 200 209 218 219 218 216 216 220 221 216 214 212 212 214 212 211 214 220 226 229 230 232 237 240 240 238 237 234 234 239 244 250 259 255 255 278 303 312 318 325 331 338 343 344
214 213 212 212 214 217 219 221 224 227 229 229 227 224 222 220 220 221 226 233 235 236 236 227 219 219 218 210 209 211 210 213 216 215 216 215 214 216 213 205 200 201 209 218 220 218 216 217 219 218 213 211 211 211 211 208 208 216 224 228 231 231 233 237 242 242 239 236 235 232 231 233 236 242 249 258 276 296 310 315 319 323 329 336 339
216 214 213 213 214 217 220 223 227 229 229 228 227 225 223 223 227 228 228 230 232 234 234 226 218 218 217 211 212 214 212 215 218 216 216 218 219 218 212 205 203 203 210 221 224 223 221 219 219 219 215 211 210 212 213 213 218 225 228 228 228 230 233 238 242 244 241 238 236 233 230 231 231 230 234 247 269 294 311 316 318 320 324 329 332
216 216 217 217 215 217 220 223 226 229 229 228 227 227 226 226 227 229 230 231 231 232 232 226 219 218 218 215 216 217 214 216 220 217 215 218 218 218 214 209 206 208 216 226 229 228 226 223 221 222 221 216 213 215 217 219 228 234 230 225 225 229 233 237 242 244 242 241 241 238 235 235 236 236 238 246 263 285 307 320 323 323 321 322 326
223 224 224 222 217 216 219 222 225 226 228 228 225 226 228 227 225 227 230 231 230 229 228 223 219 219 218 216 218 219 216 218 221 217 215 219 220 219 216 211 210 214 223 231 234 233 229 223 220 223 224 219 215 216 218 222 233 239 231 223 226 230 232 235 241 243 242 241 243 243 239 237 240 243 249 262 273 281 305 325 327 324 320 318 321
231 236 234 228 220 217 219 221 223 225 228 227 223 224 229 227 223 224 228 230 231 230 225 221 220 220 218 218 220 220 217 219 222 220 216 218 222 221 217 213 213 217 226 234 236 234 229 224 223 226 224 218 213 215 222 229 235 237 228 223 227 231 231 233 239 242 240 239 242 242 237 235 241 253 264 278 283 285 303 318 321 322 320 318 323
235 239 234 227 221 219 220 222 224 225 225 223 222 225 228 225 221 221 222 225 229 230 226 223 222 220 217 218 221 221 217 218 221 221 217 217 221 223 220 217 217 221 228 234 234 232 228 225 228 229 224 217 213 218 229 235 232 226 221 221 225 228 229 231 236 240 239 238 238 239 237 237 248 265 276 281 284 288 300 309 315 321 319 318 326
234 232 226 223 223 224 223 223 224 223 220 220 223 228 228 225 222 219 218 221 225 227 225 224 223 221 217 216 219 219 217 218 221 223 219 217 218 220 219 219 220 224 230 234 233 231 228 226 230 231 223 216 217 224 234 237 228 219 217 219 221 224 228 231 234 238 238 236 236 239 243 247 256 266 275 278 280 285 295 304 312 318 317 318 326
229 225 222 222 224 223 222 223 222 219 216 218 223 225 225 226 226 222 220 222 222 220 221 223 224 222 217 217 220 220 216 218 222 223 220 219 218 218 217 218 219 223 228 230 228 228 228 228 231 230 222 219 223 229 235 234 225 218 217 218 219 223 229 234 235 236 235 233 234 239 244 251 258 265 272 274 276 283 293 301 308 312 314 317 323
224 222 222 222 222 221 221 222 221 216 215 218 221 221 220 222 224 225 225 224 220 218 222 226 227 225 222 222 222 218 215 218 222 224 224 222 220 218 217 217 219 223 228 228 226 225 226 228 231 229 223 221 225 229 232 230 226 222 219 217 219 224 231 236 237 237 235 233 236 241 246 254 262 268 270 270 273 282 290 298 304 307 309 312 318
224 224 223 221 222 222 221 221 220 217 216 219 221 221 221 222 224 225 226 225 225 226 228 228 227 225 226 229 227 219 215 216 220 226 230 228 224 223 222 223 225 228 231 231 228 226 226 227 229 229 226 224 226 228 230 231 231 229 224 221 224 228 232 236 240 241 238 237 239 244 251 260 265 265 264 267 275 284 289 296 301 303 304 306 313
225 225 224 222 222 223 220 218 217 217 218 219 218 216 216 218 222 224 224 223 223 223 222 226 229 224 223 228 228 224 223 223 227 233 233 230 228 228 229 232 235 235 235 232 229 228 227 228 231 232 230 228 228 228 229 231 233 233 230 229 231 233 236 238 240 243 244 242 242 248 256 263 264 260 261 270 281 285 288 293 297 298 299 301 308
225 224 227 228 225 222 218 214 212 214 220 222 219 215 213 211 213 218 221 218 215 212 211 218 225 216 210 218 224 226 230 231 230 233 232 227 226 227 227 229 231 233 234 232 229 228 228 229 232 235 234 233 232 231 231 231 232 232 232 232 235 238 240 240 241 246 249 247 246 251 257 262 263 261 265 274 281 283 286 292 295 296 295 296 305
224 224 227 227 221 215 211 209 209 213 219 219 217 216 215 211 206 207 209 209 207 206 206 206 204 197 195 203 209 211 213 211 210 214 216 216 217 219 221 224 225 226 229 231 232 232 230 231 235 238 238 237 236 234 233 232 230 229 229 231 235 239 240 240 243 250 254 252 249 251 255 259 261 264 268 275 280 283 288 294 296 295 294 296 303
227 225 223 220 215 211 209 209 211 215 218 217 214 213 213 213 208 202 198 198 200 202 203 202 199 197 196 194 188 186 190 196 199 201 201 201 203 206 208 213 219 223 225 227 229 230 231 232 237 240 240 238 237 236 235 234 231 229 229 230 232 236 238 240 243 249 256 256 251 249 251 255 259 263 268 273 277 281 288 293 294 294 295 297 302
225 221 218 216 216 214 212 212 213 215 216 216 213 209 207 208 207 201 196 195 195 195 196 196 195 195 195 192 186 182 185 192 194 193 194 195 197 199 200 202 209 216 222 226 228 230 232 234 238 241 240 238 237 237 236 235 233 231 230 230 231 233 236 240 245 251 258 258 252 246 247 251 256 262 267 269 273 277 284 290 292 294 297 299 302
216 213 214 218 220 217 212 210 211 214 213 207 201 199 199 199 201 199 196 195 193 191 190 189 188 190 191 192 189 186 187 192 194 193 194 195 198 202 203 204 207 212 217 222 225 228 232 237 240 241 239 237 237 238 238 238 236 234 233 233 233 235 238 243 249 254 258 257 251 245 244 248 254 261 264 265 268 276 283 287 289 292 297 299 303
215 214 216 220 220 216 211 208 208 210 208 199 191 190 193 195 198 198 198 200 199 196 193 191 192 193 193 191 190 189 189 193 196 198 199 201 205 209 211 213 215 217 219 221 224 227 232 237 239 240 238 238 239 240 240 240 239 237 237 237 238 240 243 246 251 255 256 255 251 246 243 246 251 257 260 261 267 274 280 281 282 288 296 298 302
214 214 213 214 213 209 205 200 198 199 199 194 189 189 192 195 198 200 200 201 202 201 200 199 201 202 199 195 192 190 190 191 195 198 202 205 209 213 217 219 221 221 222 224 227 230 235 239 241 242 243 243 243 243 243 242 241 240 240 241 242 245 247 250 254 255 253 250 247 243 241 243 248 253 257 260 265 271 274 275 277 284 292 294 298
207 204 197 196 199 198 194 190 188 189 191 190 187 188 192 196 197 197 196 198 201 204 206 206 208 211 208 202 196 191 190 194 198 203 208 211 214 216 217 218 219 221 222 225 229 233 237 241 243 246 248 248 247 246 246 246 245 243 242 242 244 246 248 250 251 249 244 242 240 237 236 240 245 251 255 259 262 266 269 268 271 279 285 289 294
213 199 180 171 175 176 174 178 181 183 186 189 189 190 193 195 193 191 193 199 205 210 212 211 211 211 209 205 199 193 193 199 205 211 216 219 222 223 221 218 218 219 221 223 227 231 235 237 240 243 245 245 243 242 242 243 242 241 241 241 242 244 245 246 245 241 237 236 235 233 234 238 243 248 252 255 259 263 263 262 266 275 282 287 291
207 191 173 160 158 157 153 156 167 173 178 181 184 188 193 194 193 193 199 206 211 215 214 212 210 208 205 204 202 198 199 204 210 217 222 224 226 228 226 221 220 221 223 225 227 228 228 228 229 235 239 238 235 233 232 234 235 236 236 237 238 240 241 241 238 234 232 233 233 231 233 237 240 244 247 251 257 261 260 257 261 271 279 284 286
153 164 155 140 135 139 141 145 155 161 164 168 174 184 194 200 202 207 213 216 218 218 212 206 203 202 201 201 201 201 205 210 216 222 227 229 230 231 228 224 223 226 229 230 227 223 221 219 221 226 230 231 229 227 225 226 228 229 231 232 234 235 235 233 231 230 231 232 233 232 232 235 239 243 247 251 256 257 254 251 256 263 270 277 280
101 121 125 119 121 131 141 151 161 170 175 178 183 191 203 209 208 206 207 209 210 209 203 196 192 192 192 191 191 196 204 211 217 223 227 227 226 224 223 225 228 231 233 233 229 224 222 222 223 224 224 225 227 227 226 226 227 228 228 229 230 231 231 229 229 232 234 237 237 235 233 234 239 243 246 250 252 250 247 247 252 257 263 269 272
96 106 109 112 117 123 127 133 146 163 171 173 178 185 192 196 197 196 196 198 200 199 193 187 186 187 188 187 187 193 202 208 213 217 222 222 218 213 212 218 225 228 231 231 228 226 226 226 226 225 222 223 226 227 228 229 228 227 227 227 227 228 229 229 231 236 240 243 242 236 232 234 238 241 243 244 244 242 241 244 251 258 265 271 270
112 119 121 123 125 126 127 129 134 142 149 153 157 164 167 171 181 189 191 191 192 191 186 183 185 189 192 193 194 198 205 210 212 215 219 219 214 211 212 216 220 222 225 226 225 226 227 227 226 227 226 227 230 231 231 231 228 227 227 227 227 228 228 227 228 231 236 240 239 234 232 233 235 234 236 238 239 239 240 244 252 261 267 271 271
121 132 133 132 130 130 132 136 139 145 150 154 156 156 157 162 169 174 176 179 181 179 175 176 183 189 192 194 195 199 206 211 213 214 215 216 216 218 221 223 223 223 223 224 225 226 226 226 226 227 228 230 232 234 235 235 233 232 231 230 230 229 226 221 218 219 222 225 225 223 224 225 225 226 232 240 242 243 244 248 255 262 266 268 270
106 112 117 120 125 131 136 138 142 150 155 156 157 159 162 166 168 167 167 170 172 171 171 174 177 179 181 185 191 197 203 207 208 208 211 215 218 221 222 222 221 221 222 223 225 227 228 228 228 228 229 230 231 232 233 234 234 234 233 233 231 228 223 216 214 215 215 213 211 209 211 215 218 223 232 241 244 247 251 253 257 262 267 270 272
102 104 108 114 124 135 142 146 154 162 163 163 165 166 165 165 166 167 171 178 182 183 181 179 177 178 183 191 198 201 202 202 203 204 204 204 204 203 203 205 207 209 212 216 220 223 227 228 230 230 230 230 231 231 231 232 232 232 232 231 230 227 221 218 217 217 215 212 209 207 207 211 217 223 231 239 247 252 255 256 258 263 268 271 270
104 101 103 112 126 145 160 169 173 175 176 178 181 179 174 170 169 170 174 181 187 190 191 188 187 190 198 202 202 200 202 204 202 196 187 183 183 184 188 192 196 199 202 206 210 215 220 224 227 231 232 232 233 234 234 233 233 233 232 230 228 225 222 221 221 221 218 215 213 211 211 213 219 227 235 243 249 252 255 258 262 266 269 268 264
112 104 102 107 117 133 154 169 176 178 178 178 179 177 173 171 173 178 182 183 184 187 189 189 189 192 196 197 194 195 200 201 194 185 181 182 185 189 194 199 202 204 207 209 211 216 223 227 231 235 238 240 241 242 242 242 242 240 239 236 232 228 224 223 223 222 221 219 217 216 217 219 224 231 238 245 250 253 257 262 268 271 269 264 260
122 113 108 108 108 110 121 145 162 166 164 162 164 168 173 174 175 179 181 177 174 176 180 183 186 188 190 191 190 193 197 196 188 183 184 188 193 199 204 207 208 210 212 215 219 225 230 235 239 243 246 248 251 253 254 254 251 248 245 243 239 234 230 228 226 225 224 222 221 220 221 224 229 236 242 248 252 255 258 264 270 273 268 261 259
123 118 118 115 113 118 130 144 153 157 159 159 160 164 170 173 178 186 188 181 175 178 184 189 191 191 191 190 189 190 192 192 190 189 190 192 196 201 203 204 208 212 215 218 222 226 231 236 241 246 250 255 259 264 265 264 260 253 248 245 241 239 236 234 232 230 228 227 226 226 227 230 235 241 246 250 253 255 258 264 268 267 261 256 257